(57394) = 2001 RD84

Discovered at Anderson Mesa on 2001-09-11 by LONEOS.

Orbit

Orbit type: Main Belt

Note: WebGL enabled browser required.

epoch2024-03-31.0
epoch JD2460400.5
perihelion date2023-12-30.62498
perihelion JD2460309.12498
argument of perihelion (°)140.28073
ascending node (°)321.67902
inclination (°)3.64590
eccentricity0.0570426
perihelion distance (AU)2.1917042
Tisserand w.r.t. Jupiter3.6
ΔV w.r.t. Earth (km/sec)9.2
semimajor axis (AU)2.3242876
mean anomaly (°)25.41538
mean daily motion (°/day)0.27814360
aphelion distance (AU)2.457
period (years)3.54
P-vector [x]-0.20802637
P-vector [y]0.88047176
P-vector [z]0.42602173
Q-vector [x]-0.97732814
Q-vector [y]-0.16954784
Q-vector [z]-0.12681966
absolute magnitude15.73
phase slope0.15
uncertainty0
referenceMPEC 2024-C181
observations used1706
oppositions17
arc length (days)9190
first opposition used1998
last opposition used2024
residual rms (arc-secs)0.64
perturbers coarse indicatorM-v
perturbers precise indicator003Ek
first observation date used1998-12-17.0
last observation date used2024-02-14.0
computer nameMPCLINUX
JD of orbit computation2456937.506241
perihelion JD uncertainty (days)1.7900E-04
argument of perihelion uncertainty (°)7.8828E-05
ascending node uncertainty (°)5.8610E-05
inclination uncertainty (°)4.0585E-06
eccentricity uncertainty 3.2149E-08
perihelion distance uncertainty (AU)7.7119E-08
Minimum Orbit Intersection Distances (in AU)
for orbit epoch: 2460400.5, reference: E2024-GD4
Mercury1.87487
Venus1.47274
Earth1.21046
Mars0.55793
Jupiter2.60326
Saturn6.85427
Uranus16.173
Neptune27.5374

Observations

1754 total observations over interval: 1998 12 17.18883 – 2024 02 14.333700
These data are available for download (format description).

Date (UT) J2000 RA J2000 Dec Magn Location Ref
1998 12 17.18883 04 29 34.71 +27 46 39.4 19.2   704 – Lincoln Laboratory ETS, New Mexico MPS 38025
1998 12 17.21199 04 29 33.35 +27 46 32.1 19.0   704 – Lincoln Laboratory ETS, New Mexico MPS 38025
1998 12 17.23523 04 29 31.92 +27 46 26.5 18.8   704 – Lincoln Laboratory ETS, New Mexico MPS 38025
1998 12 17.25833 04 29 30.40 +27 46 22.0 18.9   704 – Lincoln Laboratory ETS, New Mexico MPS 38025
1998 12 17.28159 04 29 28.90 +27 46 15.7 18.5   704 – Lincoln Laboratory ETS, New Mexico MPS 38025
2000 04 28.35516 14 52 04.86 -22 57 36.0 18.7   704 – Lincoln Laboratory ETS, New Mexico MPS 38025
2000 04 28.36760 14 52 04.04 -22 57 33.8 18.4   704 – Lincoln Laboratory ETS, New Mexico MPS 38025
2000 04 28.38205 14 52 03.02 -22 57 31.1 18.7   704 – Lincoln Laboratory ETS, New Mexico MPS 38025
2000 05 28.21241 14 24 03.55 -20 39 46.3 18.9 R 699 – Lowell Observatory-LONEOS MPS 38025
2000 05 28.25341 14 24 01.92 -20 39 34.7   699 – Lowell Observatory-LONEOS MPS 38025
2000 05 28.27709 14 24 00.82 -20 39 26.9   699 – Lowell Observatory-LONEOS MPS 38025
2000 05 28.30086 14 23 59.81 -20 39 21.9   699 – Lowell Observatory-LONEOS MPS 38025
2001 08 16.33222 23 48 54.93 +01 12 02.0 19.2   704 – Lincoln Laboratory ETS, New Mexico MPS 38025
2001 08 16.34423 23 48 54.46 +01 12 02.4 20.2   704 – Lincoln Laboratory ETS, New Mexico MPS 38025
2001 08 16.35624 23 48 54.13 +01 12 01.8 20.4   704 – Lincoln Laboratory ETS, New Mexico MPS 38025
2001 08 16.36830 23 48 53.67 +01 12 00.9 19.8   704 – Lincoln Laboratory ETS, New Mexico MPS 38025
2001 08 16.38037 23 48 53.25 +01 12 00.5 19.3   704 – Lincoln Laboratory ETS, New Mexico MPS 38025
2001 08 20.27356 23 46 37.25 +01 06 26.3 17.6 R 807 – Cerro Tololo Observatory, La Serena MPS 38025
2001 08 20.35400 23 46 34.03 +01 06 17.8   807 – Cerro Tololo Observatory, La Serena MPS 38025
2001 08 24.37208 23 43 50.03 +00 57 41.1 19.0   704 – Lincoln Laboratory ETS, New Mexico MPS 38025
2001 08 24.38519 23 43 49.45 +00 57 39.5 18.9   704 – Lincoln Laboratory ETS, New Mexico MPS 38025
2001 08 24.39833 23 43 48.86 +00 57 37.3 18.9   704 – Lincoln Laboratory ETS, New Mexico MPS 38025
2001 09 11.19283 23 28 14.26 -00 05 51.0 18.3 R 699 – Lowell Observatory-LONEOS MPS 36339
2001 09 11.21877 23 28 12.66 -00 05 58.5   699 – Lowell Observatory-LONEOS MPS 36339
2001 09 11.24471 23 28 11.08 -00 06 05.1   699 – Lowell Observatory-LONEOS MPS 36339
2001 09 11.27049 23 28 09.53 -00 06 12.1   699 – Lowell Observatory-LONEOS MPS 36339
2001 09 16.31118 23 23 14.08 -00 29 12.3 18.4   704 – Lincoln Laboratory ETS, New Mexico MPS 38025
2001 09 16.32807 23 23 13.04 -00 29 17.7 18.7   704 – Lincoln Laboratory ETS, New Mexico MPS 38025
2001 09 16.34363 23 23 12.08 -00 29 21.0 18.4   704 – Lincoln Laboratory ETS, New Mexico MPS 38025
2001 09 16.37750 23 23 10.04 -00 29 30.8 18.8   704 – Lincoln Laboratory ETS, New Mexico MPS 38025
2001 09 18.19358 23 21 24.54 -00 38 00.2 18.2 R 699 – Lowell Observatory-LONEOS MPS 36339
2001 09 18.21713 23 21 23.14 -00 38 06.6   699 – Lowell Observatory-LONEOS MPS 36339
2001 09 18.24071 23 21 21.72 -00 38 13.1   699 – Lowell Observatory-LONEOS MPS 36339
2001 09 18.26411 23 21 20.29 -00 38 20.2   699 – Lowell Observatory-LONEOS MPS 36339
2001 09 20.24888 23 19 25.77 -00 47 39.4 17.4   704 – Lincoln Laboratory ETS, New Mexico MPS 36339
2001 09 20.26304 23 19 24.93 -00 47 43.4 18.2   704 – Lincoln Laboratory ETS, New Mexico MPS 36339
2001 09 20.27719 23 19 24.07 -00 47 47.6 18.6   704 – Lincoln Laboratory ETS, New Mexico MPS 36339
2001 09 20.29133 23 19 23.23 -00 47 51.4 18.4   704 – Lincoln Laboratory ETS, New Mexico MPS 36339
2001 09 20.30547 23 19 22.41 -00 47 55.4 18.0   704 – Lincoln Laboratory ETS, New Mexico MPS 36339
2001 09 22.25256 23 17 32.06 -00 57 02.4 17.7   704 – Lincoln Laboratory ETS, New Mexico MPS 36339
2001 09 22.26673 23 17 31.18 -00 57 06.9 18.5   704 – Lincoln Laboratory ETS, New Mexico MPS 36339
2001 09 22.28090 23 17 30.41 -00 57 10.2 18.8   704 – Lincoln Laboratory ETS, New Mexico MPS 36339
2001 09 22.29508 23 17 29.57 -00 57 14.6 19.0   704 – Lincoln Laboratory ETS, New Mexico MPS 36339
2001 09 22.30926 23 17 28.74 -00 57 18.1 19.0   704 – Lincoln Laboratory ETS, New Mexico MPS 36339
2001 09 23.24926 23 16 36.43 -01 01 40.5 18.2   704 – Lincoln Laboratory ETS, New Mexico MPS 43799
2001 09 23.26343 23 16 35.51 -01 01 44.1 18.6   704 – Lincoln Laboratory ETS, New Mexico MPS 43799
2001 09 23.27759 23 16 34.76 -01 01 48.1 18.5   704 – Lincoln Laboratory ETS, New Mexico MPS 43799
2001 09 23.29176 23 16 33.96 -01 01 51.6 19.0   704 – Lincoln Laboratory ETS, New Mexico MPS 43799
2001 09 23.30591 23 16 33.14 -01 01 55.0 18.4   704 – Lincoln Laboratory ETS, New Mexico MPS 43799
2001 09 24.24860 23 15 41.27 -01 06 17.6 19.1   704 – Lincoln Laboratory ETS, New Mexico MPS 43799
2001 09 24.26344 23 15 40.41 -01 06 21.0 19.8   704 – Lincoln Laboratory ETS, New Mexico MPS 43799
2001 09 24.27826 23 15 39.59 -01 06 23.6 19.7   704 – Lincoln Laboratory ETS, New Mexico MPS 43799
2001 09 24.29308 23 15 38.75 -01 06 29.5 19.4   704 – Lincoln Laboratory ETS, New Mexico MPS 43799
2001 09 24.30804 23 15 37.90 -01 06 33.4 19.2   704 – Lincoln Laboratory ETS, New Mexico MPS 43799
2001 09 26.22406 23 13 54.67 -01 15 18.5 18.9 R 699 – Lowell Observatory-LONEOS MPS 36339
2001 09 26.24593 23 13 53.48 -01 15 25.9   699 – Lowell Observatory-LONEOS MPS 36339
2001 09 26.26786 23 13 52.33 -01 15 30.8   699 – Lowell Observatory-LONEOS MPS 36339
2001 09 26.28989 23 13 51.08 -01 15 37.3   699 – Lowell Observatory-LONEOS MPS 36339
2001 10 11.17985 23 02 51.48 -02 14 02.8 19.0   644 – Palomar Mountain/NEAT MPS 38025
2001 10 11.20095 23 02 50.73 -02 14 06.9 19.2   644 – Palomar Mountain/NEAT MPS 38025
2001 10 11.22316 23 02 49.93 -02 14 10.9 19.5   644 – Palomar Mountain/NEAT MPS 38025
2001 10 19.15937 22 59 15.31 -02 34 40.7 18.8   644 – Palomar Mountain/NEAT MPS 43799
2001 10 19.18060 22 59 14.85 -02 34 43.1 19.5   644 – Palomar Mountain/NEAT MPS 43799
2001 10 19.20194 22 59 14.39 -02 34 46.1 20.0   644 – Palomar Mountain/NEAT MPS 43799
2001 10 21.08791 22 58 39.92 -02 38 14.8 18.6   704 – Lincoln Laboratory ETS, New Mexico MPS 40409
2001 10 21.10470 22 58 39.59 -02 38 16.4 18.9   704 – Lincoln Laboratory ETS, New Mexico MPS 40409
2001 10 21.13787 22 58 38.95 -02 38 18.9 19.5   704 – Lincoln Laboratory ETS, New Mexico MPS 40409
2001 10 21.15433 22 58 38.65 -02 38 20.2 20.0   704 – Lincoln Laboratory ETS, New Mexico MPS 40409
2002 12 14.483400 10 19 08.907 +11 45 46.68 19.52 V 645 – Apache Point-Sloan Digital Sky Survey MPS 81300
2002 12 14.486872 10 19 09.022 +11 45 45.79 20.43   645 – Apache Point-Sloan Digital Sky Survey MPS 81300
2003 01 08.39437 10 24 21.88 +10 41 49.6 18.9   704 – Lincoln Laboratory ETS, New Mexico MPS 71448
2003 01 08.40918 10 24 21.68 +10 41 48.5 19.4   704 – Lincoln Laboratory ETS, New Mexico MPS 71448
2003 01 08.43801 10 24 21.31 +10 41 46.9 19.9   704 – Lincoln Laboratory ETS, New Mexico MPS 71448
2003 01 08.45242 10 24 21.01 +10 41 46.9 19.3   704 – Lincoln Laboratory ETS, New Mexico MPS 71448
2003 01 15.02781 10 22 22.09 +10 41 32.2 18.0 R 599 – Campo Imperatore-CINEOS MPS 71448
2003 01 15.04304 10 22 21.70 +10 41 32.6 18.1 R 599 – Campo Imperatore-CINEOS MPS 71448
2003 01 15.05827 10 22 21.29 +10 41 32.8 18.4 R 599 – Campo Imperatore-CINEOS MPS 71448
2003 01 15.07352 10 22 20.90 +10 41 33.5 18.6 R 599 – Campo Imperatore-CINEOS MPS 71448
2003 01 17.52681 10 21 14.26 +10 43 16.8 18.1   644 – Palomar Mountain/NEAT MPS 71448
2003 01 17.53724 10 21 13.95 +10 43 17.4 18.7   644 – Palomar Mountain/NEAT MPS 71448
2003 01 17.54781 10 21 13.64 +10 43 18.0 19.0   644 – Palomar Mountain/NEAT MPS 71448
2003 01 26.39123 10 15 41.71 +10 56 52.1 18.7 R 699 – Lowell Observatory-LONEOS MPS 71448
2003 01 26.40425 10 15 41.10 +10 56 54.3 19.3 V 291 – LPL/Spacewatch II MPS 73201
2003 01 26.40899 10 15 40.88 +10 56 54.4   699 – Lowell Observatory-LONEOS MPS 71448
2003 01 26.42664 10 15 39.95 +10 56 57.6   699 – Lowell Observatory-LONEOS MPS 71448
2003 01 26.42786 10 15 39.95 +10 56 57.3 19.8 V 291 – LPL/Spacewatch II MPS 73201
2003 01 26.44442 10 15 39.12 +10 56 58.7   699 – Lowell Observatory-LONEOS MPS 71448
